Flag for United Kingdom Weather past 2 weeks in Poole, England, United Kingdom

Now
55 °F

Fog.


Feels Like: 55 °F
Forecast: 53 / 66 °F
Wind: 3 mph from Northeast

Location: Bournemouth Airport

Current Time: Oct 2, 2014 at 9:45:41 AM

Latest Report: Oct 2, 2014 at 9:20 AM


Visibility: 1 mi

Pressure: 30.39 "Hg

Humidity: 100%

Dew point: 55 °F

Location of PooleLocation

Historic Weather in Poole — Graph

°F

Poole temperature yesterday

Maximum temperature yesterday: 68 °F (at 12:20 PM)
Minimum temperature yesterday: 52 °F (at 11:20 PM)
Average temperature yesterday: 62 °F

Past Weeks' High & Low Weather Summary

 TemperatureHumidityPressure
High77 °F (Sep 18, 3:50 PM)100% (Sep 19, 8:20 AM)30.39 "Hg (Sep 19, 8:20 AM)
Low37 °F (Sep 22, 7:20 AM)49% (Sep 22, 4:20 PM)29.74 "Hg (Sep 18, 4:50 AM)
Average60 °F83%30.10 "Hg
* Reported Sep 17 8:20 AM — Oct 2 8:50 AM, Poole, Weather by CustomWeather, © 2014

Note: Actual official high and low records may vary slightly from our data, if they occured in-between our weather recording intervals... More about our weather records

Advertising

Poole weather history for previous 24 hours

 ConditionsComfort  
Time TempWeatherWind HumidityBarometerVisibility
8:50 AM
Oct 2
55 °FFog.3 mph94%30.39 "Hg3 mi
8:20 AM50 °FFog.3 mph100%30.39 "Hg3 mi
7:50 AM50 °FCool.2 mph94%30.39 "Hg1 mi
7:20 AM50 °FLight fog.1 mph100%30.39 "Hg2 mi
6:50 AM50 °FFog.1 mph94%30.39 "Hg2 mi
6:20 AM50 °FFog.1 mph100%30.39 "Hg3 mi
5:50 AM50 °FFog.2 mph100%30.39 "Hg2 mi
4:50 AM50 °FClear.2 mph100%30.39 "Hg4 mi
2:20 AM50 °FFog.2 mph100%30.39 "Hg0 mi
1:20 AM48 °FFog.2 mph100%30.36 "Hg1 mi
12:20 AM50 °FFog.1 mph94%30.36 "Hg2 mi
11:50 PM
Oct 1
52 °FLight fog.1 mph94%30.36 "HgN/A
11:20 PM52 °FClear.3 mph94%30.36 "Hg4 mi
10:20 PM54 °FLight fog.No wind94%30.36 "HgN/A
9:50 PM55 °FClear.No wind94%30.36 "Hg10 mi
9:20 PM55 °FPassing clouds.No wind94%30.36 "Hg6 mi
8:50 PM57 °FPassing clouds.1 mph94%30.36 "Hg6 mi
8:20 PM61 °FPassing clouds.1 mph88%30.33 "HgN/A
7:50 PM61 °FPassing clouds.2 mph88%30.33 "HgN/A
7:20 PM61 °FPartly sunny.2 mph83%30.33 "HgN/A
6:50 PM63 °FPassing clouds.3 mph83%30.33 "HgN/A
6:20 PM64 °FPassing clouds.6 mph78%30.30 "HgN/A
5:50 PM64 °FPartly sunny.5 mph78%30.30 "HgN/A
5:20 PM66 °FScattered clouds.8 mph73%30.30 "HgN/A
4:50 PM66 °FScattered clouds.8 mph73%30.30 "HgN/A
4:20 PM68 °FBroken clouds.8 mph69%30.30 "HgN/A
3:50 PM66 °FPartly sunny.8 mph73%30.30 "HgN/A
3:20 PM66 °FPartly sunny.8 mph68%30.30 "HgN/A
2:20 PM66 °FScattered clouds.6 mph73%30.27 "HgN/A
1:50 PM68 °FPartly sunny.6 mph64%30.27 "HgN/A
1:20 PM68 °FScattered clouds.8 mph64%30.27 "HgN/A
12:50 PM68 °FScattered clouds.10 mph64%30.27 "HgN/A
12:20 PM68 °FScattered clouds.10 mph69%30.27 "HgN/A
11:50 AM66 °FScattered clouds.7 mph73%30.27 "HgN/A
11:20 AM66 °FPassing clouds.10 mph73%30.27 "HgN/A
10:50 AM64 °FPassing clouds.8 mph73%30.27 "HgN/A
10:20 AM64 °FPassing clouds.8 mph78%30.27 "HgN/A
9:50 AM63 °FSunny.7 mph77%30.27 "Hg10 mi
9:20 AM61 °FSunny.3 mph88%30.27 "Hg10 mi
Weather by CustomWeather, © 2014

See weather overviewHow to use our weather pages